Time,TemperatureF,DewpointF,PressureIn,WindDirection,WindDirectionDegrees,WindSpeedMPH,WindSpeedGustMPH,Humidity,HourlyPrecipIn,Conditions,Clouds,dailyrainin,SoftwareType,DateUTC
2013-05-22 00:03:00,64.0,62.0,29.95,NE,36,0.0,-999.0,93,-99.99,,,-99.99,,2013-05-22 04:03:00,
2013-05-22 00:13:00,64.0,62.0,29.95,NE,36,0.0,-999.0,93,-99.99,,,-99.99,,2013-05-22 04:13:00,
2013-05-22 00:23:00,64.0,62.0,29.94,NE,36,0.0,-999.0,93,-99.99,,,-99.99,,2013-05-22 04:23:00,
2013-05-22 00:33:00,64.0,62.0,29.93,NE,36,0.0,-999.0,93,-99.99,,,-99.99,,2013-05-22 04:33:00,
2013-05-22 00:43:00,64.0,62.0,29.94,NE,36,0.0,-999.0,93,-99.99,,,-99.99,,2013-05-22 04:43:00,
2013-05-22 00:53:00,64.0,62.0,29.94,NE,36,0.0,-999.0,93,-99.99,,,-99.99,,2013-05-22 04:53:00,
2013-05-22 01:02:00,64.0,62.0,29.95,SSW,194,1.0,-999.0,94,-99.99,,,-99.99,,2013-05-22 05:02:00,
2013-05-22 01:12:00,64.0,62.0,29.95,South,177,0.0,-999.0,94,-99.99,,,-99.99,,2013-05-22 05:12:00,
2013-05-22 01:21:00,64.0,62.0,29.95,South,177,0.0,-999.0,94,-99.99,,,-99.99,,2013-05-22 05:21:00,
2013-05-22 01:32:00,65.0,63.0,29.94,SSW,213,0.0,-999.0,94,-99.99,,,-99.99,,2013-05-22 05:32:00,
2013-05-22 01:42:00,65.0,64.0,29.93,SSW,194,1.0,-999.0,95,-99.99,,,-99.99,,2013-05-22 05:42:00,
2013-05-22 01:52:00,65.0,64.0,29.93,SSW,194,1.0,-999.0,95,-99.99,,,-99.99,,2013-05-22 05:52:00,
2013-05-22 02:01:00,66.0,65.0,29.92,South,182,0.0,-999.0,95,-99.99,,,-99.99,,2013-05-22 06:01:00,
2013-05-22 02:12:00,66.0,65.0,29.91,South,183,0.0,-999.0,95,-99.99,,,-99.99,,2013-05-22 06:12:00,
2013-05-22 02:21:00,66.0,65.0,29.91,South,183,0.0,-999.0,95,-99.99,,,-99.99,,2013-05-22 06:21:00,
2013-05-22 02:32:00,66.0,65.0,29.91,South,183,0.0,-999.0,95,-99.99,,,-99.99,,2013-05-22 06:32:00,
2013-05-22 02:42:00,66.0,64.0,29.90,South,183,0.0,-999.0,94,-99.99,,,-99.99,,2013-05-22 06:42:00,
2013-05-22 02:52:00,66.0,64.0,29.90,South,183,0.0,-999.0,94,-99.99,,,-99.99,,2013-05-22 06:52:00,
2013-05-22 03:01:00,66.0,64.0,29.91,South,183,0.0,-999.0,94,-99.99,,,-99.99,,2013-05-22 07:01:00,
2013-05-22 03:11:00,66.0,64.0,29.91,South,183,0.0,-999.0,94,-99.99,,,-99.99,,2013-05-22 07:11:00,
2013-05-22 03:21:00,65.0,63.0,29.90,South,183,0.0,-999.0,94,-99.99,,,-99.99,,2013-05-22 07:21:00,
2013-05-22 03:32:00,65.0,63.0,29.90,South,183,0.0,-999.0,94,-99.99,,,-99.99,,2013-05-22 07:32:00,
2013-05-22 03:42:00,65.0,63.0,29.90,South,183,0.0,-999.0,94,-99.99,,,-99.99,,2013-05-22 07:42:00,
2013-05-22 03:53:00,64.0,62.0,29.91,South,183,0.0,-999.0,94,-99.99,,,-99.99,,2013-05-22 07:53:00,
2013-05-22 04:02:00,64.0,62.0,29.90,South,183,0.0,-999.0,94,-99.99,,,-99.99,,2013-05-22 08:02:00,
2013-05-22 04:11:00,64.0,62.0,29.90,South,183,0.0,-999.0,94,-99.99,,,-99.99,,2013-05-22 08:11:00,
2013-05-22 04:22:00,63.0,61.0,29.90,South,183,0.0,-999.0,94,-99.99,,,-99.99,,2013-05-22 08:22:00,
2013-05-22 04:32:00,63.0,61.0,29.90,South,183,0.0,-999.0,94,-99.99,,,-99.99,,2013-05-22 08:32:00,
2013-05-22 04:42:00,63.0,61.0,29.90,South,183,0.0,-999.0,94,-99.99,,,-99.99,,2013-05-22 08:42:00,
2013-05-22 04:52:00,63.0,61.0,29.91,South,183,0.0,-999.0,94,-99.99,,,-99.99,,2013-05-22 08:52:00,
2013-05-22 05:01:00,63.0,61.0,29.92,South,183,0.0,-999.0,94,-99.99,,,-99.99,,2013-05-22 09:01:00,
2013-05-22 05:12:00,63.0,61.0,29.92,South,183,0.0,-999.0,94,-99.99,,,-99.99,,2013-05-22 09:12:00,
2013-05-22 05:22:00,63.0,61.0,29.92,South,183,0.0,-999.0,94,-99.99,,,-99.99,,2013-05-22 09:22:00,
2013-05-22 05:33:00,62.0,60.0,29.93,South,183,0.0,-999.0,94,-99.99,,,-99.99,,2013-05-22 09:33:00,
2013-05-22 05:42:00,62.0,60.0,29.93,South,183,0.0,-999.0,94,-99.99,,,-99.99,,2013-05-22 09:42:00,
2013-05-22 05:53:00,62.0,61.0,29.92,South,183,0.0,-999.0,95,-99.99,,,-99.99,,2013-05-22 09:53:00,
2013-05-22 06:03:00,62.0,61.0,29.92,South,183,0.0,-999.0,95,-99.99,,,-99.99,,2013-05-22 10:03:00,
2013-05-22 06:12:00,62.0,61.0,29.92,South,183,0.0,-999.0,95,-99.99,,,-99.99,,2013-05-22 10:12:00,
2013-05-22 06:23:00,62.0,61.0,29.92,South,183,0.0,-999.0,95,-99.99,,,-99.99,,2013-05-22 10:23:00,
2013-05-22 06:33:00,62.0,61.0,29.92,South,183,0.0,-999.0,95,-99.99,,,-99.99,,2013-05-22 10:33:00,
2013-05-22 06:42:00,62.0,61.0,29.92,South,183,0.0,-999.0,95,-99.99,,,-99.99,,2013-05-22 10:42:00,
2013-05-22 06:53:00,62.0,61.0,29.92,South,183,0.0,-999.0,95,-99.99,,,-99.99,,2013-05-22 10:53:00,
2013-05-22 07:02:00,62.0,61.0,29.92,South,183,0.0,-999.0,95,-99.99,,,-99.99,,2013-05-22 11:02:00,
2013-05-22 07:11:00,62.0,61.0,29.92,South,183,0.0,-999.0,95,-99.99,,,-99.99,,2013-05-22 11:11:00,
2013-05-22 07:22:00,62.0,61.0,29.93,South,183,0.0,-999.0,95,-99.99,,,-99.99,,2013-05-22 11:22:00,
2013-05-22 07:32:00,62.0,61.0,29.93,South,183,0.0,-999.0,95,-99.99,,,-99.99,,2013-05-22 11:32:00,
2013-05-22 07:42:00,62.0,61.0,29.94,South,183,0.0,-999.0,95,-99.99,,,-99.99,,2013-05-22 11:42:00,
2013-05-22 07:53:00,62.0,61.0,29.94,South,183,0.0,-999.0,95,-99.99,,,-99.99,,2013-05-22 11:53:00,
2013-05-22 08:02:00,64.0,63.0,29.94,SSW,192,0.0,-999.0,96,-99.99,,,-99.99,,2013-05-22 12:02:00,
2013-05-22 08:12:00,64.0,63.0,29.94,SSW,192,0.0,-999.0,96,-99.99,,,-99.99,,2013-05-22 12:12:00,
2013-05-22 08:22:00,64.0,63.0,29.94,SSW,193,0.0,-999.0,96,-99.99,,,-99.99,,2013-05-22 12:22:00,
2013-05-22 08:32:00,65.0,64.0,29.95,SSW,193,0.0,-999.0,96,-99.99,,,-99.99,,2013-05-22 12:32:00,
2013-05-22 08:42:00,66.0,65.0,29.95,SSW,193,0.0,-999.0,96,-99.99,,,-99.99,,2013-05-22 12:42:00,
2013-05-22 08:52:00,66.0,65.0,29.95,SSW,193,0.0,-999.0,96,-99.99,,,-99.99,,2013-05-22 12:52:00,
2013-05-22 09:01:00,66.0,65.0,29.95,SSW,193,0.0,-999.0,96,-99.99,,,-99.99,,2013-05-22 13:01:00,
2013-05-22 09:12:00,66.0,65.0,29.95,SSW,193,0.0,-999.0,96,-99.99,,,-99.99,,2013-05-22 13:12:00,
2013-05-22 09:22:00,66.0,65.0,29.94,SSW,193,0.0,-999.0,96,-99.99,,,-99.99,,2013-05-22 13:22:00,
2013-05-22 09:32:00,68.0,67.0,29.94,SSW,193,0.0,-999.0,96,-99.99,,,-99.99,,2013-05-22 13:32:00,
2013-05-22 09:42:00,68.0,67.0,29.94,SSW,193,0.0,-999.0,96,-99.99,,,-99.99,,2013-05-22 13:42:00,
2013-05-22 09:52:00,69.0,68.0,29.94,South,178,3.0,-999.0,96,-99.99,,,-99.99,,2013-05-22 13:52:00,
2013-05-22 10:02:00,71.0,69.0,29.94,South,183,3.0,-999.0,94,-99.99,,,-99.99,,2013-05-22 14:02:00,
2013-05-22 10:11:00,73.0,70.0,29.94,SSE,164,1.0,-999.0,90,-99.99,,,-99.99,,2013-05-22 14:11:00,
2013-05-22 10:22:00,73.0,70.0,29.94,SSE,164,1.0,-999.0,90,-99.99,,,-99.99,,2013-05-22 14:22:00,
2013-05-22 10:32:00,75.0,70.0,29.93,SE,132,3.0,-999.0,85,-99.99,,,-99.99,,2013-05-22 14:32:00,
2013-05-22 10:42:00,75.0,70.0,29.93,SE,132,3.0,-999.0,85,-99.99,,,-99.99,,2013-05-22 14:42:00,
2013-05-22 10:53:00,77.0,70.0,29.93,SSE,155,3.0,-999.0,79,-99.99,,,-99.99,,2013-05-22 14:53:00,
2013-05-22 11:01:00,78.0,71.0,29.93,SSE,167,4.0,-999.0,78,-99.99,,,-99.99,,2013-05-22 15:01:00,
2013-05-22 11:11:00,78.0,71.0,29.93,SSE,167,4.0,-999.0,78,-99.99,,,-99.99,,2013-05-22 15:11:00,
2013-05-22 11:22:00,78.0,69.0,29.93,South,183,7.0,-999.0,75,-99.99,,,-99.99,,2013-05-22 15:22:00,
2013-05-22 11:32:00,79.0,71.0,29.93,South,188,4.0,-999.0,76,-99.99,,,-99.99,,2013-05-22 15:32:00,
2013-05-22 11:42:00,79.0,71.0,29.93,South,188,4.0,-999.0,76,-99.99,,,-99.99,,2013-05-22 15:42:00,
2013-05-22 11:53:00,80.0,70.0,29.92,South,175,3.0,-999.0,72,-99.99,,,-99.99,,2013-05-22 15:53:00,
2013-05-22 12:03:00,81.0,71.0,29.92,SE,139,1.0,-999.0,72,-99.99,,,-99.99,,2013-05-22 16:03:00,
2013-05-22 12:12:00,81.0,71.0,29.92,SE,139,1.0,-999.0,72,-99.99,,,-99.99,,2013-05-22 16:12:00,
2013-05-22 12:23:00,82.0,71.0,29.92,SSW,198,4.0,-999.0,69,-99.99,,,-99.99,,2013-05-22 16:23:00,
2013-05-22 12:32:00,83.0,71.0,29.92,SSW,211,5.0,-999.0,68,-99.99,,,-99.99,,2013-05-22 16:32:00,
2013-05-22 12:42:00,83.0,71.0,29.92,SSW,211,5.0,-999.0,68,-99.99,,,-99.99,,2013-05-22 16:42:00,
2013-05-22 12:52:00,84.0,72.0,29.91,South,190,2.0,-999.0,67,-99.99,,,-99.99,,2013-05-22 16:52:00,
2013-05-22 13:02:00,84.0,70.0,29.91,South,190,5.0,-999.0,64,-99.99,,,-99.99,,2013-05-22 17:02:00,
2013-05-22 13:12:00,84.0,71.0,29.91,SSW,212,1.0,-999.0,65,-99.99,,,-99.99,,2013-05-22 17:12:00,
2013-05-22 13:23:00,84.0,71.0,29.91,SSW,212,1.0,-999.0,65,-99.99,,,-99.99,,2013-05-22 17:23:00,
2013-05-22 13:33:00,84.0,72.0,29.90,SSW,196,1.0,-999.0,67,-99.99,,,-99.99,,2013-05-22 17:33:00,
2013-05-22 13:42:00,84.0,72.0,29.90,SSW,196,1.0,-999.0,67,-99.99,,,-99.99,,2013-05-22 17:42:00,
2013-05-22 13:54:00,84.0,70.0,29.90,SW,225,1.0,-999.0,63,-99.99,,,-99.99,,2013-05-22 17:54:00,
2013-05-22 14:02:00,84.0,69.0,29.90,South,173,2.0,-999.0,61,-99.99,,,-99.99,,2013-05-22 18:02:00,
2013-05-22 14:14:00,84.0,69.0,29.90,South,173,2.0,-999.0,61,-99.99,,,-99.99,,2013-05-22 18:14:00,
2013-05-22 14:22:00,84.0,69.0,29.88,NW,323,2.0,-999.0,60,-99.99,,,-99.99,,2013-05-22 18:22:00,
2013-05-22 14:33:00,85.0,68.0,29.88,WSW,244,3.0,-999.0,57,-99.99,,,-99.99,,2013-05-22 18:33:00,
2013-05-22 14:42:00,85.0,68.0,29.88,WSW,244,3.0,-999.0,57,-99.99,,,-99.99,,2013-05-22 18:42:00,
2013-05-22 14:52:00,86.0,68.0,29.88,SW,229,3.0,-999.0,55,-99.99,,,-99.99,,2013-05-22 18:52:00,
2013-05-22 15:02:00,86.0,66.0,29.87,West,267,4.0,-999.0,52,-99.99,,,-99.99,,2013-05-22 19:02:00,
2013-05-22 15:11:00,86.0,66.0,29.87,West,270,5.0,-999.0,52,-99.99,,,-99.99,,2013-05-22 19:11:00,
2013-05-22 15:21:00,86.0,66.0,29.87,West,270,5.0,-999.0,52,-99.99,,,-99.99,,2013-05-22 19:21:00,
2013-05-22 15:32:00,86.0,65.0,29.87,SW,229,2.0,-999.0,50,-99.99,,,-99.99,,2013-05-22 19:32:00,
2013-05-22 15:42:00,86.0,67.0,29.86,West,273,3.0,-999.0,54,-99.99,,,-99.99,,2013-05-22 19:42:00,
2013-05-22 15:52:00,86.0,67.0,29.86,West,273,3.0,-999.0,54,-99.99,,,-99.99,,2013-05-22 19:52:00,
2013-05-22 16:02:00,85.0,68.0,29.86,WSW,240,1.0,-999.0,57,-99.99,,,-99.99,,2013-05-22 20:02:00,
2013-05-22 16:11:00,85.0,69.0,29.85,SW,228,3.0,-999.0,59,-99.99,,,-99.99,,2013-05-22 20:11:00,
2013-05-22 16:22:00,85.0,69.0,29.85,SW,228,3.0,-999.0,59,-99.99,,,-99.99,,2013-05-22 20:22:00,
2013-05-22 16:32:00,84.0,69.0,29.84,WSW,239,3.0,-999.0,60,-99.99,,,-99.99,,2013-05-22 20:32:00,
2013-05-22 16:42:00,84.0,68.0,29.83,WSW,244,3.0,-999.0,59,-99.99,,,-99.99,,2013-05-22 20:42:00,
2013-05-22 16:52:00,84.0,68.0,29.83,WSW,244,3.0,-999.0,59,-99.99,,,-99.99,,2013-05-22 20:52:00,
2013-05-22 17:01:00,83.0,68.0,29.83,West,269,2.0,-999.0,61,-99.99,,,-99.99,,2013-05-22 21:01:00,
2013-05-22 17:11:00,83.0,68.0,29.83,SW,223,1.0,-999.0,60,-99.99,,,-99.99,,2013-05-22 21:11:00,
2013-05-22 17:21:00,83.0,68.0,29.83,SW,223,1.0,-999.0,60,-99.99,,,-99.99,,2013-05-22 21:21:00,
2013-05-22 17:32:00,83.0,67.0,29.83,WSW,252,2.0,-999.0,59,-99.99,,,-99.99,,2013-05-22 21:32:00,
2013-05-22 17:42:00,83.0,67.0,29.83,WSW,252,2.0,-999.0,59,-99.99,,,-99.99,,2013-05-22 21:42:00,
2013-05-22 17:53:00,83.0,68.0,29.85,West,263,4.0,-999.0,61,-99.99,,,-99.99,,2013-05-22 21:53:00,
2013-05-22 18:03:00,80.0,66.0,29.85,WSW,256,3.0,-999.0,62,-99.99,,,-99.99,,2013-05-22 22:03:00,
2013-05-22 18:13:00,80.0,66.0,29.85,WSW,256,3.0,-999.0,62,-99.99,,,-99.99,,2013-05-22 22:13:00,
2013-05-22 18:22:00,78.0,66.0,29.86,WSW,240,1.0,-999.0,66,-99.99,,,-99.99,,2013-05-22 22:22:00,
2013-05-22 18:33:00,76.0,67.0,29.85,WSW,240,0.0,-999.0,73,-99.99,,,-99.99,,2013-05-22 22:33:00,
2013-05-22 18:42:00,74.0,66.0,29.85,SW,214,1.0,-999.0,76,-99.99,,,-99.99,,2013-05-22 22:42:00,
2013-05-22 18:52:00,74.0,66.0,29.85,SW,214,1.0,-999.0,76,-99.99,,,-99.99,,2013-05-22 22:52:00,
2013-05-22 19:02:00,73.0,66.0,29.85,SSW,207,0.0,-999.0,80,-99.99,,,-99.99,,2013-05-22 23:02:00,
2013-05-22 19:12:00,73.0,66.0,29.85,SSW,207,0.0,-999.0,80,-99.99,,,-99.99,,2013-05-22 23:12:00,
2013-05-22 19:21:00,73.0,68.0,29.85,SSW,194,0.0,-999.0,83,-99.99,,,-99.99,,2013-05-22 23:21:00,
2013-05-22 19:32:00,73.0,68.0,29.85,SSW,200,0.0,-999.0,83,-99.99,,,-99.99,,2013-05-22 23:32:00,
2013-05-22 19:42:00,73.0,68.0,29.85,SSW,200,0.0,-999.0,83,-99.99,,,-99.99,,2013-05-22 23:42:00,
2013-05-22 19:53:00,73.0,68.0,29.85,SSW,200,0.0,-999.0,84,-99.99,,,-99.99,,2013-05-22 23:53:00,
2013-05-22 20:01:00,73.0,68.0,29.86,SSW,200,0.0,-999.0,84,-99.99,,,-99.99,,2013-05-23 00:01:00,
2013-05-22 20:11:00,73.0,68.0,29.86,SSW,200,0.0,-999.0,84,-99.99,,,-99.99,,2013-05-23 00:11:00,
2013-05-22 20:22:00,73.0,68.0,29.87,West,277,2.0,-999.0,83,-99.99,,,-99.99,,2013-05-23 00:22:00,
2013-05-22 20:32:00,72.0,66.0,29.87,West,273,0.0,-999.0,82,-99.99,,,-99.99,,2013-05-23 00:32:00,
2013-05-22 20:42:00,72.0,66.0,29.87,West,273,0.0,-999.0,82,-99.99,,,-99.99,,2013-05-23 00:42:00,
2013-05-22 20:52:00,71.0,66.0,29.87,SW,232,0.0,-999.0,83,-99.99,,,-99.99,,2013-05-23 00:52:00,
2013-05-22 21:01:00,71.0,66.0,29.87,SW,225,0.0,-999.0,85,-99.99,,,-99.99,,2013-05-23 01:01:00,
2013-05-22 21:11:00,70.0,65.0,29.87,SW,225,0.0,-999.0,85,-99.99,,,-99.99,,2013-05-23 01:11:00,
2013-05-22 21:22:00,70.0,65.0,29.87,SW,225,0.0,-999.0,85,-99.99,,,-99.99,,2013-05-23 01:22:00,
2013-05-22 21:32:00,70.0,65.0,29.88,SW,225,0.0,-999.0,85,-99.99,,,-99.99,,2013-05-23 01:32:00,
2013-05-22 21:42:00,69.0,65.0,29.88,SW,225,0.0,-999.0,86,-99.99,,,-99.99,,2013-05-23 01:42:00,
2013-05-22 21:52:00,69.0,65.0,29.88,SW,225,0.0,-999.0,86,-99.99,,,-99.99,,2013-05-23 01:52:00,
2013-05-22 22:02:00,69.0,65.0,29.88,SW,225,0.0,-999.0,87,-99.99,,,-99.99,,2013-05-23 02:02:00,
2013-05-22 22:11:00,69.0,65.0,29.88,SW,225,0.0,-999.0,87,-99.99,,,-99.99,,2013-05-23 02:11:00,
2013-05-22 22:21:00,68.0,64.0,29.88,SW,226,0.0,-999.0,87,-99.99,,,-99.99,,2013-05-23 02:21:00,
2013-05-22 22:32:00,68.0,64.0,29.89,SW,225,0.0,-999.0,88,-99.99,,,-99.99,,2013-05-23 02:32:00,
2013-05-22 22:42:00,68.0,64.0,29.89,SW,225,0.0,-999.0,88,-99.99,,,-99.99,,2013-05-23 02:42:00,
2013-05-22 22:52:00,68.0,64.0,29.89,SW,225,0.0,-999.0,88,-99.99,,,-99.99,,2013-05-23 02:52:00,
2013-05-22 23:02:00,67.0,64.0,29.90,SW,225,0.0,-999.0,89,-99.99,,,-99.99,,2013-05-23 03:02:00,
2013-05-22 23:11:00,67.0,64.0,29.90,SW,225,0.0,-999.0,89,-99.99,,,-99.99,,2013-05-23 03:11:00,
2013-05-22 23:21:00,67.0,64.0,29.90,SW,225,0.0,-999.0,90,-99.99,,,-99.99,,2013-05-23 03:21:00,
2013-05-22 23:33:00,67.0,64.0,29.90,SW,225,0.0,-999.0,90,-99.99,,,-99.99,,2013-05-23 03:33:00,
2013-05-22 23:43:00,67.0,64.0,29.90,SW,225,0.0,-999.0,90,-99.99,,,-99.99,,2013-05-23 03:43:00,
2013-05-22 23:53:00,66.0,63.0,29.90,SW,225,0.0,-999.0,91,-99.99,,,-99.99,,2013-05-23 03:53:00,